Terminal Aerodrome Forecast
Issued by NWS

Home | Current Version | Previous Version | Text Only | Print | Product List | Glossary On
Versions: 1 2 3 4 5 6 7 8 9 10 11 12
000
FTAK31 PANC 232330
TAFAHO
TAF
PAHO 232330Z 2400/2424 07009KT P6SM -SHRA BKN050
      TEMPO 2400/2404 VRB06KT
     FM241100 06003KT P6SM -RA OVC025=

USA.gov is the U.S. government's official web portal to all federal, state and local government web resources and services.